TimeCDT,TemperatureF,Dew PointF,Humidity,Sea Level PressureIn,VisibilityMPH,Wind Direction,Wind SpeedMPH,Gust SpeedMPH,PrecipitationIn,Events,Conditions,WindDirDegrees,DateUTC
12:14 AM,73.4,69.8,88,30.20,10.0,ESE,3.5,-,N/A,,Scattered Clouds,110,2013-07-15 05:14:00
12:34 AM,73.4,69.8,88,30.20,10.0,Calm,Calm,-,N/A,,Scattered Clouds,0,2013-07-15 05:34:00
12:54 AM,73.4,68.0,83,30.20,10.0,SE,4.6,-,N/A,,Clear,130,2013-07-15 05:54:00
1:14 AM,73.4,68.0,83,30.21,10.0,SE,3.5,-,N/A,,Clear,140,2013-07-15 06:14:00
1:34 AM,73.4,68.0,83,30.21,10.0,Calm,Calm,-,N/A,,Clear,0,2013-07-15 06:34:00
1:54 AM,73.4,68.0,83,30.20,10.0,SE,3.5,-,N/A,,Clear,140,2013-07-15 06:54:00
2:14 AM,73.4,68.0,83,30.20,10.0,SSE,4.6,-,N/A,,Clear,150,2013-07-15 07:14:00
2:34 AM,73.4,68.0,83,30.20,10.0,SSE,4.6,-,N/A,,Clear,150,2013-07-15 07:34:00
2:54 AM,71.6,66.2,83,30.20,10.0,SSE,3.5,-,N/A,,Clear,150,2013-07-15 07:54:00
3:14 AM,71.6,66.2,83,30.20,10.0,Calm,Calm,-,N/A,,Clear,0,2013-07-15 08:14:00
3:34 AM,71.6,66.2,83,30.20,10.0,Calm,Calm,-,N/A,,Clear,0,2013-07-15 08:34:00
3:54 AM,69.8,66.2,88,30.21,10.0,Calm,Calm,-,N/A,,Clear,0,2013-07-15 08:54:00
4:14 AM,69.8,66.2,88,30.21,10.0,Calm,Calm,-,N/A,,Clear,0,2013-07-15 09:14:00
4:34 AM,69.8,66.2,88,30.21,10.0,SE,3.5,-,N/A,,Clear,140,2013-07-15 09:34:00
4:54 AM,68.0,64.4,88,30.21,10.0,SE,3.5,-,N/A,,Clear,140,2013-07-15 09:54:00
5:14 AM,69.8,66.2,88,30.21,10.0,SSE,3.5,-,N/A,,Clear,150,2013-07-15 10:14:00
5:34 AM,69.8,66.2,88,30.21,10.0,SE,3.5,-,N/A,,Clear,140,2013-07-15 10:34:00
5:53 AM,69.8,66.2,88,30.22,10.0,Calm,Calm,-,N/A,,Clear,0,2013-07-15 10:53:00
6:14 AM,69.8,66.2,88,30.22,10.0,SE,3.5,-,N/A,,Clear,140,2013-07-15 11:14:00
6:33 AM,71.6,66.2,83,30.22,10.0,SE,3.5,-,N/A,,Clear,130,2013-07-15 11:33:00
6:45 AM,71.6,66.2,83,30.22,10.0,SE,3.5,-,N/A,,Clear,140,2013-07-15 11:45:00
6:54 AM,71.6,68.0,88,30.22,10.0,SSE,4.6,-,N/A,,Clear,150,2013-07-15 11:54:00
7:45 AM,75.2,68.0,78,30.23,10.0,SSE,4.6,-,N/A,,Clear,160,2013-07-15 12:45:00
8:45 AM,78.8,68.0,69,30.24,10.0,SSE,6.9,-,N/A,,Clear,160,2013-07-15 13:45:00
9:45 AM,80.6,68.0,65,30.25,10.0,SSE,4.6,-,N/A,,Clear,150,2013-07-15 14:45:00
10:45 AM,82.4,68.0,62,30.25,10.0,South,4.6,-,N/A,,Clear,170,2013-07-15 15:45:00
11:45 AM,84.2,64.4,51,30.24,10.0,SSE,6.9,-,N/A,,Scattered Clouds,150,2013-07-15 16:45:00
12:45 PM,86.0,66.2,51,30.23,10.0,South,6.9,-,N/A,,Scattered Clouds,190,2013-07-15 17:45:00
1:45 PM,87.8,66.2,49,30.22,10.0,SSE,8.1,-,N/A,,Mostly Cloudy,160,2013-07-15 18:45:00
2:50 PM,86.0,66.2,51,30.21,10.0,South,10.4,-,N/A,,Mostly Cloudy,170,2013-07-15 19:50:00
3:45 PM,84.2,66.2,55,30.21,10.0,South,10.4,-,N/A,,Scattered Clouds,170,2013-07-15 20:45:00
4:45 PM,87.8,64.4,46,30.20,10.0,South,10.4,-,N/A,,Scattered Clouds,180,2013-07-15 21:45:00
5:45 PM,87.8,66.2,49,30.19,10.0,South,10.4,-,N/A,,Scattered Clouds,170,2013-07-15 22:45:00
6:45 PM,87.8,66.2,49,30.19,10.0,SSE,5.8,-,N/A,,Scattered Clouds,160,2013-07-15 23:45:00
7:45 PM,84.2,69.8,62,30.18,10.0,SSE,3.5,-,N/A,,Scattered Clouds,160,2013-07-16 00:45:00
8:45 PM,82.4,69.8,66,30.17,10.0,Calm,Calm,-,N/A,,Mostly Cloudy,0,2013-07-16 01:45:00
9:14 PM,82.4,68.0,62,30.17,10.0,SE,3.5,-,N/A,,Scattered Clouds,130,2013-07-16 02:14:00
9:33 PM,80.6,69.8,70,30.18,10.0,ESE,4.6,-,N/A,,Clear,120,2013-07-16 02:33:00
9:45 PM,80.6,69.8,70,30.18,10.0,ESE,4.6,-,N/A,,Scattered Clouds,120,2013-07-16 02:45:00
9:54 PM,80.6,69.8,70,30.18,10.0,SE,4.6,-,N/A,,Clear,130,2013-07-16 02:54:00
10:14 PM,80.6,69.8,70,30.18,10.0,SE,4.6,-,N/A,,Scattered Clouds,130,2013-07-16 03:14:00
10:33 PM,80.6,69.8,70,30.18,10.0,SE,4.6,-,N/A,,Scattered Clouds,130,2013-07-16 03:33:00
10:54 PM,80.6,69.8,70,30.18,10.0,Calm,Calm,-,N/A,,Clear,0,2013-07-16 03:54:00
11:14 PM,78.8,69.8,74,30.18,10.0,ESE,4.6,-,N/A,,Scattered Clouds,120,2013-07-16 04:14:00
11:34 PM,78.8,69.8,74,30.18,10.0,SE,4.6,-,N/A,,Mostly Cloudy,130,2013-07-16 04:34:00
11:54 PM,80.6,69.8,70,30.18,10.0,SE,4.6,-,N/A,,Mostly Cloudy,130,2013-07-16 04:54:00